[[{"header":{"parameterUnit":"m.s-1","parameterCategory":1,"la1":30.2991,"la2":30.254,"lo1":-89.0895,"lo2":-89.0444,"dy":0.0017,"dx":0.0017,"nx":28,"ny":28,"refTime":"2025-09-12T09:00:00:Z","depth":0,"parameterNumber":2,"parameterNumberName":"U-component_of_WINDS"},"data":[0,0,0,0,0,0,0,0,0,0,0,0,0,0,0,0,0,0,0,0,0,0,0,0,0,0,0,0,0,0,0,0,0,0,0,0,0,0,0,0,0,0,0,0,0,0,0,0,0,0,0,0,0,0,0,0,0,0,0.8084,0.8087,0,0.8313,0.8315,0.8318,0.8443,0.8443,0.8443,0.8444,0.868,0.8685,0.8691,0,0,0,0,0,0,0,0,0,0,0,0,0,0.7759,0.7764,0.8084,0.8087,0.809,0.8312,0.8315,0.8319,0.8443,0.8443,0.8443,0.8444,0.8678,0.8685,0.8692,0,0,0,0,0,0,0,0,0,0,0,0,0,0.7935,0.7766,0.8084,0.8179,0.8189,0.8312,0.8316,0.8319,0.8443,0.8443,0.8443,0.8444,0.8675,0.8684,0.8693,0.8739,0,0,0.872,0.8724,0,0,0,0,0,0,0,0,0.7925,0.7947,0.8162,0.8172,0.8185,0.835,0.8288,0.846,0.8442,0.8346,0.8444,0.8444,0.857,0.8587,0.8629,0.875,0.876,0.8721,0.8727,0.8731,0.8733,0,0,0,0,0,0,0,0.7912,0.7938,0.8175,0.8165,0.8179,0.8211,0.8236,0.8321,0.8453,0.8355,0.8364,0.839,0.8576,0.862,0.8636,0.8764,0.8721,0.8729,0.8735,0.8738,0.8936,0.8935,0,0,0,0,0,0,0.7885,0.7927,0.8168,0.8182,0.8053,0.8216,0.8245,0.8296,0.8452,0.8476,0.8389,0.8395,0.8605,0.8625,0.8644,0.8709,0.8731,0.8739,0.8744,0.8936,0.8935,0.8935,0,0,0,0,0,0,0.7877,0.7905,0.8158,0.8057,0.8092,0.8221,0.8278,0.83,0.8345,0.8478,0.8502,0.841,0.8606,0.8632,0.8715,0.8719,0.8743,0.8751,0.8936,0.8936,0.8935,0.8839,0,0,0,0,0,0,0.7867,0.7901,0.792,0.8056,0.8096,0.8223,0.8278,0.8305,0.836,0.8369,0.8504,0.8527,0.8608,0.8701,0.8724,0.8732,0.8758,0.8936,0.8936,0.8935,0.8842,0.8835,0.8829,0,0,0,0,0,0.7855,0.7884,0.792,0.7948,0.8122,0.8224,0.8247,0.8339,0.836,0.838,0.8465,0.8522,0.8715,0.8708,0.8735,0.8746,0.8936,0.8936,0.8935,0.8845,0.8836,0.8829,0,0,0,0,0,0,0.7745,0.7903,0.7945,0.8019,0.8106,0.8244,0.8272,0.8327,0.8412,0.8417,0.853,0.8559,0.8631,0.8698,0.8687,0.88,0.8832,0.8837,0.8753,0.8747,0.874,0.8723,0.8766,0,0,0,0,0,0.7729,0.7797,0.7933,0.7984,0.8026,0.8141,0.8189,0.8253,0.8349,0.8387,0.8479,0.857,0.8652,0.8703,0.8786,0.8852,0.8884,0.8874,0.8867,0.8861,0.8864,0.8905,0.8902,0.8934,0.8934,0.8934,0,0,0.7697,0.7792,0.7829,0.7965,0.804,0.8109,0.8172,0.8243,0.8295,0.8398,0.8482,0.8552,0.8662,0.8737,0.8775,0.8795,0.8862,0.8861,0.8855,0.8861,0.8904,0.8901,0.8898,0.8934,0.8934,0.8934,0,0,0.7674,0.7753,0.7804,0.7879,0.7992,0.8069,0.8081,0.8211,0.8261,0.8347,0.8425,0.8491,0.8628,0.8704,0.876,0.8766,0.8822,0.879,0.8756,0.8794,0.8792,0.879,0.8792,0.8792,0.8792,0.8792,0.8792,0,0.7621,0.7727,0.7824,0.789,0.7948,0.8044,0.8097,0.8165,0.83,0.8338,0.8358,0.8533,0.8614,0.8708,0.871,0.8752,0.877,0.8774,0.8784,0.8783,0.8783,0.8787,0.8787,0.8787,0.8788,0.8788,0.8789,0,0.7655,0.7728,0.7756,0.7882,0.7944,0.8003,0.8111,0.8161,0.822,0.8294,0.838,0.8481,0.8585,0.8613,0.8671,0.8715,0.8724,0.8762,0.8797,0.8774,0.8779,0.8781,0.878,0.8782,0.8784,0.8785,0,0,0.7569,0.7748,0.7757,0.7815,0.7948,0.8006,0.8071,0.8172,0.8213,0.8303,0.8361,0.8475,0.8512,0.8575,0.8643,0.8677,0.8676,0.8712,0.8716,0.8702,0.8731,0.8701,0.8701,0.8714,0.8714,0.8715,0.8722,0,0.7565,0.7683,0.7772,0.7857,0.7925,0.8018,0.8074,0.8162,0.8233,0.8303,0.8383,0.8462,0.8505,0.8544,0.8581,0.8667,0.8683,0.8668,0.8769,0.8771,0.8737,0.8703,0.8672,0.8673,0.8725,0.8725,0.8725,0,0.7575,0.766,0.7751,0.7876,0.7908,0.7957,0.8057,0.8123,0.8225,0.8275,0.8345,0.8416,0.8489,0.8517,0.862,0.8608,0.8655,0.8703,0.8706,0.8718,0.8746,0.8714,0.8676,0.8676,0.8729,0.8729,0.8729,0,0.7502,0.764,0.7712,0.7759,0.7907,0.7939,0.8003,0.8106,0.8161,0.8249,0.8286,0.8382,0.8434,0.8508,0.8602,0.8614,0.8696,0.8731,0.874,0.8737,0.8752,0.875,0.872,0.8783,0.8782,0.8782,0.8782,0,0.7487,0.7539,0.7681,0.7725,0.7787,0.789,0.7948,0.802,0.8111,0.8171,0.8258,0.8314,0.8435,0.8506,0.8581,0.8655,0.8678,0.8721,0.874,0.8713,0.8707,0.8745,0.8747,0.8783,0.8783,0.8783,0.8783,0,0.7415,0.7513,0.7597,0.773,0.7765,0.7804,0.7919,0.7966,0.8043,0.8119,0.8143,0.8263,0.8351,0.8453,0.8574,0.8625,0.8693,0.8722,0.8658,0.8669,0.8671,0.8669,0.8663,0.8668,0.8727,0.8726,0.8726,0,0.7399,0.7441,0.7578,0.7624,0.7684,0.7758,0.7815,0.7919,0.7975,0.8094,0.8127,0.8222,0.8302,0.8439,0.8538,0.8632,0.8663,0.8655,0.8678,0.8649,0.8663,0.8658,0.8663,0.8648,0.8646,0.8646,0.8645,0,0.7359,0.7405,0.7483,0.7577,0.7641,0.7721,0.7805,0.7838,0.796,0.8018,0.8108,0.8171,0.8295,0.8387,0.8494,0.8561,0.8623,0.8637,0.8644,0.8616,0.8577,0.8598,0.864,0.8636,0.8637,0.8638,0.8638,0.8639,0.7315,0.7356,0.7459,0.7542,0.7616,0.7692,0.7742,0.7825,0.7902,0.801,0.8067,0.8156,0.826,0.8408,0.8474,0.8546,0.8567,0.8577,0.858,0.858,0.8572,0.8566,0.8566,0.8566,0.8567,0.8567,0.8567,0,0.7279,0.735,0.7425,0.7539,0.7604,0.7657,0.7752,0.7804,0.7881,0.7971,0.8048,0.8152,0.8243,0.835,0.8448,0.8485,0.8516,0.8507,0.8505,0.852,0.8548,0.8532,0.848,0.848,0.848,0.848,0.848,0.848,0.7268,0.7341,0.7399,0.7509,0.7581,0.7667,0.7717,0.7789,0.7861,0.7972,0.8048,0.8116,0.8214,0.832,0.8406,0.8435,0.8467,0.8449,0.8486,0.851,0.8518,0.8525,0.851,0.8455,0.8455,0.8453,0.8453,0.8453]},{"header":{"parameterUnit":"m.s-1","parameterCategory":1,"la1":30.2991,"la2":30.254,"lo1":-89.0895,"lo2":-89.0444,"dy":0.0017,"dx":0.0017,"nx":28,"ny":28,"refTime":"2025-09-12T09:00:00:Z","depth":0,"parameterNumber":3,"parameterNumberName":"V-component_of_WINDS"},"data":[0,0,0,0,0,0,0,0,0,0,0,0,0,0,0,0,0,0,0,0,0,0,0,0,0,0,0,0,0,0,0,0,0,0,0,0,0,0,0,0,0,0,0,0,0,0,0,0,0,0,0,0,0,0,0,0,0,0,2.8945,2.8945,0,2.8927,2.8927,2.8927,2.8875,2.8874,2.8873,2.8872,2.8855,2.8855,2.8856,0,0,0,0,0,0,0,0,0,0,0,0,0,2.8937,2.8937,2.8945,2.8945,2.8945,2.8927,2.8927,2.8927,2.8876,2.8874,2.8873,2.8872,2.8855,2.8855,2.8856,0,0,0,0,0,0,0,0,0,0,0,0,0,2.8932,2.8937,2.8945,2.8917,2.8914,2.8927,2.8927,2.8927,2.8876,2.8874,2.8873,2.8871,2.8854,2.8855,2.8856,2.8895,0,0,2.8859,2.8859,0,0,0,0,0,0,0,0,2.8932,2.8932,2.8922,2.8919,2.8916,2.8902,2.8918,2.8916,2.8876,2.8891,2.8872,2.887,2.8872,2.8871,2.8872,2.8894,2.8894,2.8859,2.8859,2.886,2.886,0,0,0,0,0,0,0,2.8933,2.8933,2.8938,2.8922,2.8918,2.8906,2.8903,2.8917,2.8891,2.8889,2.8885,2.8884,2.887,2.8871,2.8871,2.8893,2.8859,2.886,2.886,2.886,2.8947,2.8949,0,0,0,0,0,0,2.8937,2.8933,2.8939,2.8938,2.892,2.8907,2.8905,2.8908,2.8891,2.8886,2.8885,2.8882,2.887,2.887,2.887,2.8913,2.886,2.8861,2.8861,2.8945,2.8947,2.8949,0,0,0,0,0,0,2.8937,2.8938,2.894,2.8934,2.8934,2.8909,2.8914,2.8909,2.8909,2.8888,2.8883,2.8891,2.8869,2.8869,2.8889,2.8912,2.8861,2.8862,2.8943,2.8946,2.8948,2.9002,0,0,0,0,0,0,2.8937,2.8938,2.8952,2.8935,2.8934,2.8959,2.8915,2.891,2.8911,2.8906,2.8892,2.8888,2.8867,2.8888,2.889,2.8912,2.8862,2.8941,2.8944,2.8947,2.8998,2.9006,2.9013,0,0,0,0,0,2.8937,2.8968,2.8953,2.8954,2.8951,2.896,2.8959,2.8935,2.8913,2.8927,2.8913,2.8888,2.891,2.8891,2.8892,2.8915,2.8939,2.8943,2.8947,2.8994,2.9004,2.9013,0,0,0,0,0,0,2.8989,2.8965,2.8948,2.8975,2.897,2.8951,2.8968,2.8947,2.8948,2.8943,2.8914,2.8911,2.8935,2.8928,2.8906,2.8952,2.892,2.8925,2.8956,2.8965,2.8972,2.8973,2.8863,0,0,0,0,0,2.9004,2.9012,2.8992,2.9017,2.9016,2.8993,2.8996,2.8978,2.8971,2.8968,2.8956,2.8951,2.8956,2.8961,2.8965,2.8997,2.8993,2.9014,2.9022,2.9028,2.9032,2.9047,2.9056,2.8962,2.8962,2.8962,0,0,2.9034,2.9022,2.9029,2.9028,2.9021,2.9031,2.8991,2.9003,2.901,2.897,2.8988,2.8979,2.8972,2.8998,2.9009,2.8993,2.9057,2.9033,2.9038,2.9038,2.9052,2.9061,2.9069,2.8965,2.8965,2.8964,0,0,2.9093,2.9086,2.9106,2.9101,2.9092,2.9076,2.9082,2.9066,2.9058,2.9076,2.9046,2.9055,2.9066,2.9061,2.906,2.9119,2.9096,2.9122,2.916,2.9176,2.9183,2.919,2.921,2.9217,2.9126,2.9126,2.9126,0,2.9131,2.9144,2.9119,2.9133,2.9133,2.9098,2.9118,2.9115,2.9108,2.9108,2.909,2.9103,2.9095,2.912,2.9134,2.9135,2.914,2.9122,2.9185,2.9191,2.9196,2.9215,2.9222,2.9129,2.9129,2.9129,2.9128,0,2.9192,2.9201,2.9219,2.9212,2.9215,2.9232,2.9209,2.9215,2.9198,2.9185,2.9203,2.9193,2.9194,2.9199,2.9183,2.9222,2.9211,2.919,2.9157,2.9209,2.9225,2.9232,2.9134,2.9132,2.9132,2.9131,0,0,2.9281,2.9261,2.9268,2.9264,2.9253,2.926,2.9276,2.9277,2.9281,2.9279,2.9291,2.9301,2.9281,2.928,2.9263,2.9277,2.9323,2.9253,2.9252,2.9265,2.9364,2.9379,2.9387,2.9309,2.931,2.9311,2.9364,0,2.9335,2.936,2.9339,2.9368,2.9376,2.9344,2.9358,2.9352,2.9341,2.9347,2.9335,2.9342,2.9316,2.9315,2.9328,2.9315,2.9342,2.9311,2.9319,2.9319,2.9319,2.9396,2.9412,2.9463,2.9371,2.9372,2.9373,0,2.9401,2.9401,2.9431,2.9417,2.942,2.9433,2.9432,2.9438,2.9432,2.9422,2.9422,2.9401,2.9416,2.9386,2.9406,2.9385,2.9388,2.9382,2.9384,2.9381,2.9347,2.9394,2.9478,2.9485,2.9383,2.9382,2.9381,0,2.9461,2.9469,2.9487,2.9485,2.947,2.948,2.9474,2.9466,2.9468,2.9468,2.9469,2.9471,2.9472,2.9474,2.9454,2.9435,2.9477,2.9445,2.9469,2.9469,2.9477,2.9476,2.956,2.9483,2.9482,2.9482,2.9482,0,2.9523,2.9542,2.9513,2.9524,2.9545,2.9521,2.9542,2.9534,2.9527,2.9536,2.951,2.9519,2.9494,2.95,2.9486,2.9504,2.9505,2.9498,2.9493,2.9498,2.9499,2.9498,2.9493,2.9484,2.9484,2.9483,2.9483,0,2.9591,2.9573,2.9591,2.9576,2.9573,2.9588,2.9576,2.9585,2.9573,2.9585,2.9587,2.9568,2.9574,2.9556,2.956,2.955,2.9576,2.9567,2.9577,2.9574,2.9598,2.9595,2.9682,2.9691,2.961,2.9611,2.9612,0,2.963,2.9644,2.9631,2.9635,2.963,2.9638,2.9639,2.9617,2.962,2.9615,2.9625,2.963,2.9632,2.9644,2.9631,2.9634,2.9623,2.9654,2.9623,2.9628,2.9621,2.962,2.9621,2.9659,2.966,2.9661,2.9662,0,2.9701,2.9692,2.9695,2.9696,2.9699,2.9699,2.9697,2.9702,2.9678,2.9683,2.9689,2.9691,2.9695,2.97,2.97,2.9695,2.9674,2.9672,2.9677,2.9681,2.9686,2.9682,2.9592,2.9669,2.9668,2.9668,2.9667,2.9667,2.9754,2.9765,2.9757,2.9762,2.9758,2.9757,2.9765,2.9755,2.976,2.9761,2.9748,2.9757,2.9751,2.9749,2.9746,2.9753,2.9739,2.9747,2.9749,2.9751,2.9754,2.9688,2.9753,2.9753,2.9753,2.9753,2.9753,0,2.9822,2.9816,2.9821,2.9818,2.9823,2.9804,2.9801,2.9805,2.9813,2.981,2.9813,2.982,2.9825,2.9813,2.9815,2.9823,2.9814,2.9825,2.9822,2.9821,2.9767,2.9761,2.9832,2.9832,2.9832,2.9832,2.9832,2.9832,2.9857,2.9874,2.9864,2.9879,2.9872,2.988,2.988,2.9879,2.9876,2.9885,2.9889,2.9881,2.9874,2.9876,2.988,2.9876,2.9878,2.9892,2.9884,2.9833,2.9825,2.9818,2.9812,2.9893,2.9893,2.9938,2.9938,2.9939]}]]